TimeEDT,TemperatureF,Dew PointF,Humidity,Sea Level PressureIn,VisibilityMPH,Wind Direction,Wind SpeedMPH,Gust SpeedMPH,PrecipitationIn,Events,Conditions,WindDirDegrees,DateUTC
12:05 AM,62.6,60.8,94,29.93,1.0,Calm,Calm,-,N/A,,Overcast,0,2013-10-18 04:05:00
12:10 AM,62.6,60.8,94,29.92,4.0,Calm,Calm,-,N/A,,Overcast,0,2013-10-18 04:10:00
12:26 AM,60.8,60.8,100,29.93,2.0,Calm,Calm,-,N/A,,Mostly Cloudy,0,2013-10-18 04:26:00
12:32 AM,60.8,60.8,100,29.92,1.0,Calm,Calm,-,N/A,,Mostly Cloudy,0,2013-10-18 04:32:00
12:41 AM,60.8,60.8,100,29.92,0.2,Calm,Calm,-,N/A,Fog,Fog,0,2013-10-18 04:41:00
12:53 AM,60.1,60.1,100,29.88,0.2,Calm,Calm,-,N/A,Fog,Fog,0,2013-10-18 04:53:00
1:19 AM,60.8,59.0,94,29.93,0.2,Calm,Calm,-,N/A,Fog,Fog,0,2013-10-18 05:19:00
1:40 AM,59.0,57.2,94,29.93,1.0,Calm,Calm,-,N/A,,Mist,0,2013-10-18 05:40:00
1:43 AM,59.0,57.2,94,29.93,4.0,NNW,3.5,-,N/A,,Mist,330,2013-10-18 05:43:00
1:53 AM,57.9,55.9,93,29.88,10.0,NNW,3.5,-,N/A,,Unknown,330,2013-10-18 05:53:00
2:53 AM,57.9,54.0,87,29.89,10.0,Calm,Calm,-,N/A,,Clear,0,2013-10-18 06:53:00
3:53 AM,55.0,52.0,89,29.90,10.0,NNW,3.5,-,0.01,,Clear,330,2013-10-18 07:53:00
4:53 AM,53.1,51.1,93,29.90,10.0,Calm,Calm,-,N/A,,Clear,0,2013-10-18 08:53:00
5:53 AM,52.0,50.0,93,29.91,10.0,Calm,Calm,-,N/A,,Clear,0,2013-10-18 09:53:00
6:53 AM,52.0,50.0,93,29.94,10.0,Calm,Calm,-,N/A,,Clear,0,2013-10-18 10:53:00
7:25 AM,50.0,48.2,94,29.99,1.8,Calm,Calm,-,N/A,,Clear,0,2013-10-18 11:25:00
7:53 AM,48.0,46.9,96,29.96,1.0,Calm,Calm,-,N/A,,Clear,0,2013-10-18 11:53:00
8:04 AM,48.2,46.4,93,30.00,4.0,Calm,Calm,-,N/A,,Clear,0,2013-10-18 12:04:00
8:53 AM,54.0,52.0,93,29.99,10.0,Calm,Calm,-,N/A,,Overcast,0,2013-10-18 12:53:00
9:53 AM,57.0,53.1,87,30.01,10.0,Calm,Calm,-,N/A,,Mostly Cloudy,0,2013-10-18 13:53:00
10:53 AM,61.0,50.0,67,30.01,10.0,Calm,Calm,-,N/A,,Scattered Clouds,0,2013-10-18 14:53:00
11:53 AM,63.0,48.9,60,30.00,10.0,Calm,Calm,-,N/A,,Overcast,0,2013-10-18 15:53:00
12:53 PM,64.9,50.0,58,29.98,10.0,ENE,5.8,-,N/A,,Mostly Cloudy,60,2013-10-18 16:53:00
1:53 PM,64.0,51.1,63,29.96,10.0,Variable,4.6,-,N/A,,Mostly Cloudy,0,2013-10-18 17:53:00
2:53 PM,66.0,51.1,59,29.94,10.0,Calm,Calm,-,N/A,,Mostly Cloudy,0,2013-10-18 18:53:00
3:53 PM,66.9,51.1,57,29.93,10.0,Variable,3.5,-,N/A,,Partly Cloudy,0,2013-10-18 19:53:00
4:53 PM,66.9,52.0,59,29.92,10.0,Calm,Calm,-,N/A,,Clear,0,2013-10-18 20:53:00
5:53 PM,66.0,53.1,63,29.93,10.0,Calm,Calm,-,N/A,,Clear,0,2013-10-18 21:53:00
6:53 PM,63.0,52.0,67,29.94,10.0,Calm,Calm,-,N/A,,Clear,0,2013-10-18 22:53:00
7:53 PM,60.1,52.0,75,29.94,10.0,Calm,Calm,-,N/A,,Clear,0,2013-10-18 23:53:00
8:53 PM,57.9,53.1,84,29.95,10.0,Calm,Calm,-,N/A,,Partly Cloudy,0,2013-10-19 00:53:00
9:53 PM,57.9,52.0,81,29.96,10.0,Calm,Calm,-,N/A,,Partly Cloudy,0,2013-10-19 01:53:00
10:53 PM,55.9,53.1,90,29.96,10.0,Calm,Calm,-,N/A,,Clear,0,2013-10-19 02:53:00
11:53 PM,55.9,53.1,90,29.94,10.0,Calm,Calm,-,N/A,,Clear,0,2013-10-19 03:53:00